| time (UTC) | temp F | wind direction | speed MPH | gust MPH | rain 1hr in | rain 24hr in | rain mn in | humidity % | barometer mb |
| 20260502151556 | 53 | 87 | 3.0 | 11.0 | 0.00 | 0.00 | 0.00 | 44 | 1015.2 |
| 20260502150109 | 52 | 229 | 4.0 | 10.0 | 0.00 | 0.00 | 0.00 | 42 | 1015.4 |
| 20260502130107 | 45 | 148 | 1.0 | 3.0 | 0.00 | 0.00 | 0.00 | 69 | 1015.8 |
| 20260502123100 | 44 | 172 | 0.0 | 2.0 | 0.00 | 0.00 | 0.00 | 72 | 1015.7 |
| 20260502121558 | 44 | 0 | 0.0 | 2.0 | 0.00 | 0.00 | 0.00 | 74 | 1015.9 |
| 20260502114558 | 42 | 0 | 0.0 | 0.0 | 0.00 | 0.00 | 0.00 | 80 | 1015.7 |
| 20260502113056 | 41 | 0 | 0.0 | 0.0 | 0.00 | 0.00 | 0.00 | 83 | 1015.7 |
| 20260502111555 | 41 | 0 | 0.0 | 0.0 | 0.00 | 0.00 | 0.00 | 82 | 1015.6 |
| 20260502110053 | 41 | 0 | 0.0 | 0.0 | 0.00 | 0.00 | 0.00 | 82 | 1015.6 |
| 20260502104551 | 41 | 0 | 0.0 | 0.0 | 0.00 | 0.00 | 0.00 | 81 | 1015.4 |
| 20260502103054 | 41 | 0 | 0.0 | 1.0 | 0.00 | 0.00 | 0.00 | 80 | 1015.4 |
| 20260502101553 | 42 | 175 | 0.0 | 1.0 | 0.00 | 0.00 | 0.00 | 78 | 1015.6 |
| 20260502080106 | 47 | 152 | 2.0 | 5.0 | 0.00 | 0.00 | 0.00 | 63 | 1015.3 |
| 20260502070052 | 48 | 149 | 0.0 | 3.0 | 0.00 | 0.00 | 0.00 | 58 | 1015.1 |
| 20260502064559 | 48 | 128 | 1.0 | 7.0 | 0.00 | 0.00 | 0.00 | 58 | 1015.0 |
| 20260502063112 | 49 | 201 | 3.0 | 6.0 | 0.00 | 0.00 | 0.00 | 57 | 1015.3 |
| 20260502061552 | 49 | 170 | 0.0 | 3.0 | 0.00 | 0.00 | 0.00 | 57 | 1015.6 |
| 20260502060058 | 49 | 229 | 1.0 | 6.0 | 0.00 | 0.00 | 0.00 | 56 | 1015.6 |
| 20260502054552 | 49 | 224 | 4.0 | 8.0 | 0.00 | 0.00 | 0.00 | 59 | 1015.4 |
| 20260502053059 | 50 | 181 | 3.0 | 7.0 | 0.00 | 0.00 | 0.00 | 65 | 1015.3 |
| 20260502051551 | 50 | 210 | 2.0 | 8.0 | 0.00 | 0.00 | 0.00 | 64 | 1015.3 |
| 20260502050054 | 50 | 227 | 6.0 | 12.0 | 0.00 | 0.00 | 0.00 | 66 | 1015.3 |
| 20260502044552 | 51 | 189 | 5.0 | 10.0 | 0.00 | 0.00 | 0.00 | 67 | 1015.4 |
| 20260502043055 | 51 | 146 | 4.0 | 8.0 | 0.00 | 0.00 | 0.00 | 66 | 1015.3 |
| 20260502041556 | 51 | 102 | 1.0 | 5.0 | 0.00 | 0.00 | 0.00 | 66 | 1015.2 |
| 20260502040101 | 51 | 115 | 0.0 | 6.0 | 0.00 | 0.00 | 0.00 | 65 | 1015.2 |
| 20260502034556 | 52 | 82 | 2.0 | 5.0 | 0.00 | 0.00 | 0.00 | 64 | 1015.3 |
| 20260502033053 | 52 | 193 | 1.0 | 5.0 | 0.00 | 0.00 | 0.00 | 64 | 1015.4 |
| 20260502031555 | 52 | 103 | 2.0 | 6.0 | 0.00 | 0.00 | 0.00 | 62 | 1015.4 |
| 20260502030052 | 52 | 181 | 2.0 | 7.0 | 0.00 | 0.00 | 0.00 | 61 | 1015.5 |
| 20260502024603 | 52 | 212 | 4.0 | 10.0 | 0.00 | 0.00 | 0.00 | 61 | 1015.3 |
| 20260502023107 | 53 | 241 | 4.0 | 11.0 | 0.00 | 0.00 | 0.00 | 61 | 1015.0 |
| 20260502021556 | 53 | 179 | 5.0 | 10.0 | 0.00 | 0.00 | 0.00 | 62 | 1014.7 |
| 20260502020058 | 54 | 197 | 4.0 | 14.0 | 0.00 | 0.00 | 0.00 | 61 | 1014.4 |
| 20260502014557 | 54 | 115 | 3.0 | 9.0 | 0.00 | 0.00 | 0.00 | 62 | 1013.9 |
| 20260502013055 | 54 | 199 | 3.0 | 15.0 | 0.00 | 0.00 | 0.00 | 63 | 1013.7 |
| 20260502011558 | 55 | 170 | 2.0 | 8.0 | 0.00 | 0.00 | 0.00 | 64 | 1013.6 |
| 20260502010054 | 55 | 226 | 3.0 | 11.0 | 0.00 | 0.00 | 0.00 | 63 | 1013.4 |
| 20260502004552 | 56 | 207 | 1.0 | 7.0 | 0.00 | 0.00 | 0.00 | 63 | 1012.9 |
| 20260502003056 | 56 | 156 | 3.0 | 9.0 | 0.00 | 0.00 | 0.00 | 60 | 1012.8 |
| 20260502001555 | 57 | 285 | 2.0 | 8.0 | 0.00 | 0.00 | 0.00 | 59 | 1012.2 |
| 20260502000100 | 58 | 238 | 4.0 | 14.0 | 0.00 | 0.00 | 0.00 | 56 | 1011.7 |
| 20260501234559 | 59 | 191 | 10.0 | 17.0 | 0.00 | 0.00 | 0.00 | 53 | 1011.2 |
| 20260501233054 | 61 | 231 | 8.0 | 16.0 | 0.00 | 0.00 | 0.00 | 47 | 1010.9 |
| 20260501231616 | 65 | 154 | 4.0 | 8.0 | 0.00 | 0.00 | 0.00 | 35 | 1010.3 |
| 20260501230059 | 67 | 134 | 4.0 | 7.0 | 0.00 | 0.00 | 0.00 | 32 | 1010.2 |
| 20260501224602 | 67 | 104 | 4.0 | 10.0 | 0.00 | 0.00 | 0.00 | 32 | 1010.2 |
| 20260501223053 | 68 | 185 | 2.0 | 17.0 | 0.00 | 0.00 | 0.00 | 30 | 1010.0 |
| 20260501221606 | 69 | 168 | 5.0 | 14.0 | 0.00 | 0.00 | 0.00 | 28 | 1009.9 |
| 20260501220058 | 69 | 66 | 3.0 | 24.0 | 0.00 | 0.00 | 0.00 | 29 | 1010.0 |
| 20260501214553 | 68 | 31 | 4.0 | 16.0 | 0.00 | 0.00 | 0.00 | 29 | 1010.0 |
| 20260501213055 | 68 | 165 | 3.0 | 16.0 | 0.00 | 0.00 | 0.00 | 29 | 1010.1 |
| 20260501211608 | 70 | 227 | 6.0 | 14.0 | 0.00 | 0.00 | 0.00 | 26 | 1010.0 |
| 20260501210054 | 71 | 109 | 3.0 | 15.0 | 0.00 | 0.00 | 0.00 | 26 | 1010.0 |
| 20260501204552 | 70 | 139 | 4.0 | 13.0 | 0.00 | 0.00 | 0.00 | 25 | 1009.9 |
| 20260501203056 | 71 | 172 | 4.0 | 12.0 | 0.00 | 0.00 | 0.00 | 24 | 1009.8 |
| 20260501201602 | 71 | 239 | 3.0 | 15.0 | 0.00 | 0.00 | 0.00 | 25 | 1009.7 |
| 20260501200055 | 71 | 216 | 4.0 | 11.0 | 0.00 | 0.00 | 0.00 | 22 | 1009.8 |
| 20260501194609 | 71 | 171 | 2.0 | 19.0 | 0.00 | 0.00 | 0.00 | 22 | 1009.9 |
| 20260501193054 | 71 | 137 | 4.0 | 15.0 | 0.00 | 0.00 | 0.00 | 23 | 1009.8 |
| 20260501191555 | 71 | 75 | 2.0 | 13.0 | 0.00 | 0.00 | 0.00 | 24 | 1010.1 |
| 20260501190055 | 71 | 11 | 9.0 | 17.0 | 0.00 | 0.00 | 0.00 | 24 | 1010.0 |
| 20260501184553 | 69 | 271 | 4.0 | 9.0 | 0.00 | 0.00 | 0.00 | 33 | 1010.4 |
| 20260501183053 | 69 | 143 | 1.0 | 8.0 | 0.00 | 0.00 | 0.00 | 27 | 1010.4 |
| 20260501181602 | 68 | 71 | 1.0 | 9.0 | 0.00 | 0.00 | 0.00 | 32 | 1010.7 |
| 20260501180100 | 68 | 84 | 4.0 | 9.0 | 0.00 | 0.00 | 0.00 | 32 | 1011.0 |
| 20260501174554 | 67 | 75 | 3.0 | 9.0 | 0.00 | 0.00 | 0.00 | 34 | 1011.3 |
| 20260501173056 | 66 | 146 | 2.0 | 7.0 | 0.00 | 0.00 | 0.00 | 35 | 1011.5 |
| 20260501171555 | 64 | 326 | 4.0 | 10.0 | 0.00 | 0.00 | 0.00 | 33 | 1011.8 |
| 20260501170054 | 64 | 53 | 4.0 | 8.0 | 0.00 | 0.00 | 0.00 | 37 | 1012.0 |
| 20260501164553 | 63 | 63 | 1.0 | 6.0 | 0.00 | 0.00 | 0.00 | 37 | 1012.3 |
| 20260501163057 | 61 | 54 | 3.0 | 10.0 | 0.00 | 0.00 | 0.00 | 41 | 1012.6 |
| 20260501161555 | 61 | 94 | 3.0 | 7.0 | 0.00 | 0.00 | 0.00 | 43 | 1013.0 |
| 20260501160057 | 60 | 88 | 1.0 | 6.0 | 0.00 | 0.00 | 0.00 | 48 | 1013.2 |